Flag for Netherlands Weather past 2 weeks in 's-Hertogenbosch, Netherlands

Now
59 °F

Partly sunny.


Feels Like: 60 °F
Forecast: 46 / 65 °F
Wind: 3 mph from Northwest

Location: Volkel

Current Time: Aug 20, 2014 at 7:26:51 PM

Latest Report: Aug 20, 2014 at 6:55 PM


Visibility: N/A

Pressure: 29.98 "Hg

Humidity: 68%

Dew point: 48 °F

Location of 's-HertogenboschLocation

Historic Weather in 's-Hertogenbosch — Graph

°F

's-Hertogenbosch temperature yesterday

Maximum temperature yesterday: 61 °F (at 12:25 PM)
Minimum temperature yesterday: 46 °F (at 8:55 PM)
Average temperature yesterday: 54 °F

Past Weeks' High & Low Weather Summary

 TemperatureHumidityPressure
High77 °F (Aug 8, 1:55 PM)100% (Aug 6, 2:25 AM)30.09 "Hg (Aug 6, 2:25 AM)
Low43 °F (Aug 20, 2:25 AM)44% (Aug 5, 6:25 PM)29.53 "Hg (Aug 10, 4:55 PM)
Average61 °F84%29.84 "Hg
* Reported Aug 5 6:25 PM — Aug 20 6:25 PM, 's-Hertogenbosch, Weather by CustomWeather, © 2014

Note: Actual official high and low records may vary slightly from our data, if they occured in-between our weather recording intervals... More about our weather records

Advertising

's-Hertogenbosch weather history for previous 24 hours

 ConditionsComfort  
Time TempWeatherWind HumidityBarometerVisibility
6:25 PM
Aug 20
57 °FOvercast.2 mph77%29.98 "HgN/A
5:55 PM57 °FOvercast.6 mph77%29.98 "HgN/A
5:25 PM57 °FBroken clouds.3 mph77%29.98 "HgN/A
4:55 PM57 °FBroken clouds.10 mph77%30.01 "HgN/A
4:25 PM57 °FBroken clouds.9 mph72%29.98 "HgN/A
3:55 PM57 °FBroken clouds.5 mph77%30.01 "HgN/A
3:25 PM59 °FMore clouds than sun.8 mph68%29.98 "HgN/A
2:55 PM66 °FMostly cloudy.8 mph52%29.98 "HgN/A
2:25 PM64 °FPassing clouds.3 mph52%29.98 "HgN/A
1:55 PM59 °FLight rain. Broken clouds.6 mph68%29.98 "HgN/A
1:25 PM61 °FCloudy.9 mph63%29.98 "HgN/A
12:55 PM64 °FBroken clouds.6 mph56%29.98 "HgN/A
12:25 PM64 °FBroken clouds.6 mph60%30.01 "HgN/A
11:55 AM61 °FPartly sunny.8 mph63%30.01 "HgN/A
11:25 AM61 °FBroken clouds.9 mph68%30.01 "HgN/A
10:55 AM61 °FCool.9 mph68%30.01 "HgN/A
10:25 AM59 °FCool.8 mph72%30.01 "HgN/A
9:55 AM59 °FCool.8 mph77%30.01 "HgN/A
9:25 AM55 °FCool.7 mph82%29.98 "HgN/A
8:55 AM54 °FCool.8 mph88%29.98 "HgN/A
8:25 AM50 °FCool.7 mph94%29.98 "HgN/A
7:55 AM48 °FCool.7 mph100%29.98 "HgN/A
7:25 AM46 °FCool.7 mph100%29.98 "HgN/A
6:55 AM43 °FQuite cool.7 mph100%29.98 "HgN/A
6:25 AM43 °FQuite cool.7 mph100%29.98 "HgN/A
5:55 AM43 °FQuite cool.6 mph100%29.98 "HgN/A
5:25 AM43 °FQuite cool.7 mph100%29.95 "HgN/A
4:55 AM45 °FPassing clouds.6 mph93%29.98 "HgN/A
4:25 AM45 °FPassing clouds.7 mph93%29.95 "HgN/A
3:55 AM46 °FPassing clouds.5 mph100%29.95 "HgN/A
3:25 AM46 °FPassing clouds.9 mph93%29.95 "HgN/A
2:55 AM45 °FPassing clouds.8 mph100%29.95 "HgN/A
2:25 AM43 °FQuite cool.6 mph100%29.95 "HgN/A
1:55 AM45 °FQuite cool.5 mph100%29.95 "HgN/A
1:25 AM46 °FPassing clouds.7 mph93%29.95 "HgN/A
12:55 AM46 °FPassing clouds.8 mph93%29.95 "HgN/A
12:25 AM46 °FCool.8 mph93%29.95 "HgN/A
11:55 PM
Aug 19
46 °FCool.8 mph100%29.95 "HgN/A
11:25 PM46 °FPassing clouds.7 mph93%29.95 "HgN/A
10:55 PM46 °FPassing clouds.7 mph100%29.95 "HgN/A
10:25 PM48 °FCool.8 mph94%29.92 "HgN/A
9:55 PM46 °FPassing clouds.6 mph100%29.92 "HgN/A
9:25 PM46 °FCool.5 mph100%29.92 "HgN/A
8:55 PM46 °FBroken clouds.5 mph93%29.92 "HgN/A
8:25 PM50 °FLight rain. Broken clouds.6 mph88%29.92 "HgN/A
7:55 PM54 °FScattered clouds.7 mph82%29.89 "HgN/A
7:25 PM55 °FScattered clouds.7 mph77%29.89 "HgN/A
Weather by CustomWeather, © 2014

See weather overviewHow to use our weather pages